"Sample Date","Sample Time","Sample Value","Units","Flow Rate","Number Channels","Micron Size 0","Counts/Channel 0","Micron Size 1","Counts/Channel 1","Micron Size 2","Counts/Channel 2","Micron Size 3","Counts/Channel 3","Micron Size 4","Counts/Channel 4","Micron Size 5","Counts/Channel 5","Micron Size 6","Counts/Channel 6","Micron Size 7","Counts/Channel 7","Micron Size 8","Counts/Channel 8","Micron Size 9","Counts/Channel 9","Micron Size 10","Counts/Channel 10","Micron Size 11","Counts/Channel 11","Micron Size 12","Counts/Channel 12","Micron Size 13","Counts/Channel 13","Micron Size 14","Counts/Channel 14","Micron Size 15","Counts/Channel 15","Micron Size 16","Counts/Channel 16","Micron Size 17","Counts/Channel 17","Micron Size 18","Counts/Channel 18","Micron Size 19","Counts/Channel 19","Micron Size 20","Counts/Channel 20","Micron Size 21","Counts/Channel 21","Micron Size 22","Counts/Channel 22","Micron Size 23","Counts/Channel 23","Micron Size 24","Counts/Channel 24","Micron Size 25","Counts/Channel 25","Micron Size 26","Counts/Channel 26","Micron Size 27","Counts/Channel 27","Micron Size 28","Counts/Channel 28","Micron Size 29","Counts/Channel 29","Micron Size 30","Counts/Channel 30","Micron Size 31","Counts/Channel 31"
"05/12/08","00:00:03",10380.000,"cc",28292.096,6,0.100,8635.000,0.200,1622.000,0.300,112.000,0.500,10.000,1.000,1.000,5.000,0
"05/12/08","00:00:09",9639.000,"cc",28330.729,6,0.100,8076.000,0.200,1435.000,0.300,122.000,0.500,6.000,1.000,0,5.000,0
"05/12/08","00:00:15",9526.000,"cc",28345.912,6,0.100,7979.000,0.200,1427.000,0.300,113.000,0.500,7.000,1.000,0,5.000,0
"05/12/08","00:00:21",6999.000,"cc",28319.139,6,0.100,5814.000,0.200,1090.000,0.300,83.000,0.500,9.000,1.000,3.000,5.000,0
"05/12/08","00:00:27",8741.000,"cc",28358.670,6,0.100,7331.000,0.200,1293.000,0.300,108.000,0.500,8.000,1.000,1.000,5.000,0
"05/12/08","00:00:33",8872.000,"cc",28259.541,6,0.100,7377.000,0.200,1382.000,0.300,102.000,0.500,11.000,1.000,0,5.000,0
"05/12/08","00:00:39",7292.000,"cc",28312.773,6,0.100,6032.000,0.200,1140.000,0.300,105.000,0.500,14.000,1.000,1.000,5.000,0
"05/12/08","00:00:45",5677.000,"cc",28326.557,6,0.100,4671.000,0.200,916.000,0.300,80.000,0.500,9.000,1.000,1.000,5.000,0
"05/12/08","00:00:51",7609.000,"cc",28358.738,6,0.100,6277.000,0.200,1223.000,0.300,98.000,0.500,11.000,1.000,0,5.000,0
"05/12/08","00:00:57",8251.000,"cc",28339.869,6,0.100,6898.000,0.200,1226.000,0.300,117.000,0.500,10.000,1.000,0,5.000,0
"05/12/08","00:01:03",8749.000,"cc",28278.617,6,0.100,7304.000,0.200,1338.000,0.300,95.000,0.500,12.000,1.000,0,5.000,0
"05/12/08","00:01:09",5898.000,"cc",28353.053,6,0.100,4830.000,0.200,982.000,0.300,80.000,0.500,6.000,1.000,0,5.000,0
"05/12/08","00:01:15",7613.000,"cc",28262.025,6,0.100,6269.000,0.200,1201.000,0.300,126.000,0.500,17.000,1.000,0,5.000,0
"05/12/08","00:01:21",8701.000,"cc",28297.578,6,0.100,7177.000,0.200,1393.000,0.300,118.000,0.500,12.000,1.000,1.000,5.000,0
"05/12/08","00:01:27",6623.000,"cc",28286.002,6,0.100,5396.000,0.200,1125.000,0.300,89.000,0.500,12.000,1.000,1.000,5.000,0
"05/12/08","00:01:33",5633.000,"cc",28363.658,6,0.100,4537.000,0.200,978.000,0.300,102.000,0.500,15.000,1.000,1.000,5.000,0
"05/12/08","00:01:39",3894.000,"cc",28314.811,6,0.100,3154.000,0.200,671.000,0.300,61.000,0.500,6.000,1.000,2.000,5.000,0
"05/12/08","00:01:45",8129.000,"cc",28297.338,6,0.100,6669.000,0.200,1323.000,0.300,126.000,0.500,8.000,1.000,3.000,5.000,0
"05/12/08","00:01:51",8309.000,"cc",28314.053,6,0.100,6917.000,0.200,1256.000,0.300,124.000,0.500,11.000,1.000,1.000,5.000,0
"05/12/08","00:01:57",5152.000,"cc",28320.809,6,0.100,4263.000,0.200,805.000,0.300,72.000,0.500,11.000,1.000,1.000,5.000,0
"05/12/08","00:02:03",5892.000,"cc",28364.832,6,0.100,4761.000,0.200,1023.000,0.300,99.000,0.500,9.000,1.000,0,5.000,0
"05/12/08","00:02:09",6594.000,"cc",28257.080,6,0.100,5404.000,0.200,1066.000,0.300,110.000,0.500,14.000,1.000,0,5.000,0
"05/12/08","00:02:15",7012.000,"cc",28375.541,6,0.100,5742.000,0.200,1141.000,0.300,116.000,0.500,10.000,1.000,3.000,5.000,0
"05/12/08","00:02:21",12363.000,"cc",28305.543,6,0.100,10361.000,0.200,1842.000,0.300,147.000,0.500,12.000,1.000,1.000,5.000,0
"05/12/08","00:02:27",10936.000,"cc",28288.822,6,0.100,9160.000,0.200,1634.000,0.300,129.000,0.500,10.000,1.000,3.000,5.000,0
"05/12/08","00:02:33",12175.000,"cc",28349.703,6,0.100,10246.000,0.200,1796.000,0.300,127.000,0.500,5.000,1.000,1.000,5.000,0
"05/12/08","00:02:39",10966.000,"cc",28306.580,6,0.100,9130.000,0.200,1705.000,0.300,120.000,0.500,11.000,1.000,0,5.000,0
"05/12/08","00:02:45",14305.000,"cc",28345.836,6,0.100,12043.000,0.200,2092.000,0.300,164.000,0.500,6.000,1.000,0,5.000,0
"05/12/08","00:02:51",11542.000,"cc",28298.818,6,0.100,9716.000,0.200,1692.000,0.300,126.000,0.500,8.000,1.000,0,5.000,0
"05/12/08","00:02:57",14015.000,"cc",28316.287,6,0.100,11698.000,0.200,2135.000,0.300,173.000,0.500,9.000,1.000,0,5.000,0
"05/12/08","00:03:03",10780.000,"cc",28332.588,6,0.100,8939.000,0.200,1691.000,0.300,145.000,0.500,5.000,1.000,0,5.000,0
"05/12/08","00:03:09",11078.000,"cc",28307.514,6,0.100,9142.000,0.200,1773.000,0.300,154.000,0.500,7.000,1.000,2.000,5.000,0
"05/12/08","00:03:15",9290.000,"cc",28296.891,6,0.100,7703.000,0.200,1442.000,0.300,137.000,0.500,7.000,1.000,1.000,5.000,0
"05/12/08","00:03:21",14552.000,"cc",28351.543,6,0.100,12194.000,0.200,2172.000,0.300,172.000,0.500,13.000,1.000,1.000,5.000,0
"05/12/08","00:03:27",11891.000,"cc",28309.256,6,0.100,9906.000,0.200,1850.000,0.300,129.000,0.500,6.000,1.000,0,5.000,0
"05/12/08","00:03:33",21314.000,"cc",28332.246,6,0.100,17958.000,0.200,3103.000,0.300,248.000,0.500,5.000,1.000,0,5.000,0
"05/12/08","00:03:39",23016.000,"cc",28316.840,6,0.100,19369.000,0.200,3404.000,0.300,233.000,0.500,10.000,1.000,0,5.000,0
"05/12/08","00:03:45",16001.000,"cc",28297.367,6,0.100,13345.000,0.200,2449.000,0.300,198.000,0.500,7.000,1.000,2.000,5.000,0
"05/12/08","00:03:51",10480.000,"cc",28310.463,6,0.100,8749.000,0.200,1605.000,0.300,117.000,0.500,9.000,1.000,0,5.000,0
"05/12/08","00:03:57",13488.000,"cc",28302.547,6,0.100,11233.000,0.200,2056.000,0.300,191.000,0.500,8.000,1.000,0,5.000,0
"05/12/08","00:04:03",15193.000,"cc",28281.000,6,0.100,12733.000,0.200,2270.000,0.300,176.000,0.500,13.000,1.000,1.000,5.000,0
"05/12/08","00:04:09",18016.000,"cc",28320.381,6,0.100,15180.000,0.200,2626.000,0.300,203.000,0.500,4.000,1.000,3.000,5.000,0
"05/12/08","00:04:15",20871.000,"cc",28309.195,6,0.100,17547.000,0.200,3080.000,0.300,227.000,0.500,15.000,1.000,2.000,5.000,0
"05/12/08","00:04:21",29082.000,"cc",28328.930,6,0.100,24528.000,0.200,4211.000,0.300,336.000,0.500,7.000,1.000,0,5.000,0
"05/12/08","00:04:27",24021.000,"cc",28329.459,6,0.100,20198.000,0.200,3545.000,0.300,269.000,0.500,9.000,1.000,0,5.000,0
"05/12/08","00:04:33",21705.000,"cc",28349.775,6,0.100,18176.000,0.200,3288.000,0.300,228.000,0.500,13.000,1.000,0,5.000,0
"05/12/08","00:04:39",18537.000,"cc",28294.049,6,0.100,15522.000,0.200,2792.000,0.300,218.000,0.500,4.000,1.000,1.000,5.000,0
"05/12/08","00:04:45",11079.000,"cc",28314.740,6,0.100,9309.000,0.200,1648.000,0.300,116.000,0.500,6.000,1.000,0,5.000,0
"05/12/08","00:04:51",7687.000,"cc",28328.022,6,0.100,6381.000,0.200,1213.000,0.300,84.000,0.500,9.000,1.000,0,5.000,0
"05/12/08","00:04:57",8342.000,"cc",28316.260,6,0.100,6928.000,0.200,1287.000,0.300,121.000,0.500,6.000,1.000,0,5.000,0
"05/12/08","00:05:03",11524.000,"cc",28298.346,6,0.100,9641.000,0.200,1755.000,0.300,123.000,0.500,5.000,1.000,0,5.000,0
"05/12/08","00:05:09",13001.000,"cc",28364.975,6,0.100,10818.000,0.200,2017.000,0.300,153.000,0.500,12.000,1.000,1.000,5.000,0
"05/12/08","00:05:15",13714.000,"cc",28306.215,6,0.100,11573.000,0.200,1984.000,0.300,147.000,0.500,9.000,1.000,1.000,5.000,0
"05/12/08","00:05:21",12632.000,"cc",28287.129,6,0.100,10631.000,0.200,1837.000,0.300,159.000,0.500,4.000,1.000,1.000,5.000,0
"05/12/08","00:05:27",14214.000,"cc",28325.359,6,0.100,11858.000,0.200,2176.000,0.300,168.000,0.500,11.000,1.000,1.000,5.000,0
"05/12/08","00:05:33",12331.000,"cc",28348.871,6,0.100,10286.000,0.200,1877.000,0.300,158.000,0.500,9.000,1.000,1.000,5.000,0
"05/12/08","00:05:39",21401.000,"cc",28327.090,6,0.100,18016.000,0.200,3143.000,0.300,230.000,0.500,10.000,1.000,2.000,5.000,0
"05/12/08","00:05:45",16909.000,"cc",28304.623,6,0.100,14312.000,0.200,2414.000,0.300,172.000,0.500,11.000,1.000,0,5.000,0
"05/12/08","00:05:51",12990.000,"cc",28349.746,6,0.100,10911.000,0.200,1937.000,0.300,134.000,0.500,8.000,1.000,0,5.000,0
"05/12/08","00:05:57",18669.000,"cc",28298.883,6,0.100,15745.000,0.200,2704.000,0.300,212.000,0.500,6.000,1.000,2.000,5.000,0
"05/12/08","00:06:03",20642.000,"cc",28294.393,6,0.100,17357.000,0.200,3085.000,0.300,192.000,0.500,8.000,1.000,0,5.000,0
"05/12/08","00:06:09",15815.000,"cc",28308.272,6,0.100,13264.000,0.200,2350.000,0.300,192.000,0.500,9.000,1.000,0,5.000,0
"05/12/08","00:06:15",13369.000,"cc",28310.815,6,0.100,11212.000,0.200,2004.000,0.300,143.000,0.500,10.000,1.000,0,5.000,0
"05/12/08","00:06:21",11056.000,"cc",28360.645,6,0.100,9272.000,0.200,1653.000,0.300,121.000,0.500,10.000,1.000,0,5.000,0
"05/12/08","00:06:27",17092.000,"cc",28319.008,6,0.100,14386.000,0.200,2501.000,0.300,194.000,0.500,11.000,1.000,0,5.000,0
"05/12/08","00:06:33",13700.000,"cc",28285.815,6,0.100,11457.000,0.200,2102.000,0.300,134.000,0.500,7.000,1.000,0,5.000,0
"05/12/08","00:06:39",12996.000,"cc",28335.447,6,0.100,10938.000,0.200,1906.000,0.300,145.000,0.500,6.000,1.000,1.000,5.000,0
"05/12/08","00:06:45",12455.000,"cc",28262.299,6,0.100,10463.000,0.200,1839.000,0.300,146.000,0.500,7.000,1.000,0,5.000,0
"05/12/08","00:06:51",16050.000,"cc",28334.190,6,0.100,13423.000,0.200,2437.000,0.300,180.000,0.500,10.000,1.000,0,5.000,0
"05/12/08","00:06:57",24661.000,"cc",28327.994,6,0.100,20617.000,0.200,3753.000,0.300,279.000,0.500,12.000,1.000,0,5.000,0
"05/12/08","00:07:03",14972.000,"cc",28312.877,6,0.100,12636.000,0.200,2164.000,0.300,164.000,0.500,7.000,1.000,1.000,5.000,0
"05/12/08","00:07:09",11246.000,"cc",28323.594,6,0.100,9512.000,0.200,1621.000,0.300,107.000,0.500,6.000,1.000,0,5.000,0
"05/12/08","00:07:15",11246.000,"cc",28282.992,6,0.100,9482.000,0.200,1634.000,0.300,121.000,0.500,9.000,1.000,0,5.000,0
"05/12/08","00:07:21",19697.000,"cc",28278.990,6,0.100,16535.000,0.200,2958.000,0.300,196.000,0.500,6.000,1.000,2.000,5.000,0
"05/12/08","00:07:27",17411.000,"cc",28297.975,6,0.100,14659.000,0.200,2516.000,0.300,218.000,0.500,17.000,1.000,1.000,5.000,0
"05/12/08","00:07:33",12990.000,"cc",28339.148,6,0.100,10973.000,0.200,1871.000,0.300,142.000,0.500,3.000,1.000,1.000,5.000,0
"05/12/08","00:07:39",15363.000,"cc",28347.518,6,0.100,12976.000,0.200,2251.000,0.300,125.000,0.500,11.000,1.000,0,5.000,0
"05/12/08","00:07:45",9614.000,"cc",28330.537,6,0.100,8075.000,0.200,1434.000,0.300,98.000,0.500,7.000,1.000,0,5.000,0
"05/12/08","00:07:51",11436.000,"cc",28298.494,6,0.100,9621.000,0.200,1685.000,0.300,119.000,0.500,11.000,1.000,0,5.000,0
"05/12/08","00:07:57",7258.000,"cc",28340.514,6,0.100,6149.000,0.200,1033.000,0.300,72.000,0.500,3.000,1.000,1.000,5.000,0
"05/12/08","00:08:03",9818.000,"cc",28286.795,6,0.100,8208.000,0.200,1500.000,0.300,106.000,0.500,3.000,1.000,1.000,5.000,0
"05/12/08","00:08:09",12509.000,"cc",28326.494,6,0.100,10504.000,0.200,1868.000,0.300,132.000,0.500,5.000,1.000,0,5.000,0
"05/12/08","00:08:15",9799.000,"cc",28329.824,6,0.100,8284.000,0.200,1416.000,0.300,93.000,0.500,5.000,1.000,1.000,5.000,0
"05/12/08","00:08:21",10606.000,"cc",28284.977,6,0.100,8870.000,0.200,1610.000,0.300,116.000,0.500,10.000,1.000,0,5.000,0
"05/12/08","00:08:27",7126.000,"cc",28340.365,6,0.100,5943.000,0.200,1097.000,0.300,73.000,0.500,13.000,1.000,0,5.000,0
"05/12/08","00:08:33",7836.000,"cc",28276.219,6,0.100,6516.000,0.200,1212.000,0.300,97.000,0.500,11.000,1.000,0,5.000,0
"05/12/08","00:08:39",7147.000,"cc",28339.057,6,0.100,5958.000,0.200,1102.000,0.300,81.000,0.500,5.000,1.000,1.000,5.000,0
"05/12/08","00:08:45",10026.000,"cc",28322.924,6,0.100,8458.000,0.200,1453.000,0.300,107.000,0.500,8.000,1.000,0,5.000,0
"05/12/08","00:08:51",15560.000,"cc",28317.139,6,0.100,13119.000,0.200,2264.000,0.300,165.000,0.500,11.000,1.000,1.000,5.000,0
"05/12/08","00:08:57",10080.000,"cc",28288.961,6,0.100,8499.000,0.200,1466.000,0.300,104.000,0.500,11.000,1.000,0,5.000,0
"05/12/08","00:09:03",16052.000,"cc",28320.797,6,0.100,13658.000,0.200,2250.000,0.300,136.000,0.500,8.000,1.000,0,5.000,0
"05/12/08","00:09:09",10854.000,"cc",28296.619,6,0.100,9121.000,0.200,1609.000,0.300,117.000,0.500,7.000,1.000,0,5.000,0
"05/12/08","00:09:15",8553.000,"cc",28345.836,6,0.100,7196.000,0.200,1268.000,0.300,79.000,0.500,10.000,1.000,0,5.000,0
"05/12/08","00:09:21",8154.000,"cc",28301.666,6,0.100,6852.000,0.200,1211.000,0.300,82.000,0.500,7.000,1.000,2.000,5.000,0
"05/12/08","00:09:27",7103.000,"cc",28325.121,6,0.100,5972.000,0.200,1047.000,0.300,73.000,0.500,11.000,1.000,0,5.000,0
"05/12/08","00:09:33",9483.000,"cc",28331.934,6,0.100,8005.000,0.200,1367.000,0.300,105.000,0.500,5.000,1.000,1.000,5.000,0
"05/12/08","00:09:39",8615.000,"cc",28266.713,6,0.100,7142.000,0.200,1362.000,0.300,103.000,0.500,7.000,1.000,1.000,5.000,0
"05/12/08","00:09:45",7653.000,"cc",28283.768,6,0.100,6419.000,0.200,1154.000,0.300,77.000,0.500,3.000,1.000,0,5.000,0
"05/12/08","00:09:51",5154.000,"cc",28354.027,6,0.100,4338.000,0.200,735.000,0.300,72.000,0.500,8.000,1.000,1.000,5.000,0
"05/12/08","00:09:57",5268.000,"cc",28380.377,6,0.100,4377.000,0.200,808.000,0.300,70.000,0.500,12.000,1.000,1.000,5.000,0
"05/12/08","00:10:03",5485.000,"cc",28264.127,6,0.100,4551.000,0.200,863.000,0.300,64.000,0.500,7.000,1.000,0,5.000,0
"05/12/08","00:10:09",5268.000,"cc",28341.424,6,0.100,4345.000,0.200,843.000,0.300,68.000,0.500,10.000,1.000,2.000,5.000,0
"05/12/08","00:10:15",6272.000,"cc",28321.129,6,0.100,5231.000,0.200,927.000,0.300,97.000,0.500,16.000,1.000,1.000,5.000,0
"05/12/08","00:10:21",5713.000,"cc",28300.543,6,0.100,4748.000,0.200,850.000,0.300,102.000,0.500,12.000,1.000,1.000,5.000,0
"05/12/08","00:10:27",6088.000,"cc",28295.779,6,0.100,5080.000,0.200,896.000,0.300,97.000,0.500,14.000,1.000,1.000,5.000,0
"05/12/08","00:10:33",8147.000,"cc",28330.518,6,0.100,6861.000,0.200,1163.000,0.300,111.000,0.500,12.000,1.000,0,5.000,0
"05/12/08","00:10:39",4774.000,"cc",28362.828,6,0.100,4011.000,0.200,691.000,0.300,55.000,0.500,16.000,1.000,1.000,5.000,0
"05/12/08","00:10:45",4542.000,"cc",28277.742,6,0.100,3826.000,0.200,652.000,0.300,58.000,0.500,6.000,1.000,0,5.000,0
"05/12/08","00:10:51",13149.000,"cc",28316.207,6,0.100,11212.000,0.200,1810.000,0.300,118.000,0.500,9.000,1.000,0,5.000,0
"05/12/08","00:10:57",13910.000,"cc",28295.697,6,0.100,11843.000,0.200,1936.000,0.300,124.000,0.500,7.000,1.000,0,5.000,0
"05/12/08","00:11:03",14723.000,"cc",28295.199,6,0.100,12508.000,0.200,2073.000,0.300,136.000,0.500,6.000,1.000,0,5.000,0
"05/12/08","00:11:09",11919.000,"cc",28365.356,6,0.100,10224.000,0.200,1589.000,0.300,98.000,0.500,7.000,1.000,1.000,5.000,0
"05/12/08","00:11:15",11326.000,"cc",28306.412,6,0.100,9642.000,0.200,1581.000,0.300,98.000,0.500,5.000,1.000,0,5.000,0
"05/12/08","00:11:21",16206.000,"cc",28332.994,6,0.100,13807.000,0.200,2239.000,0.300,149.000,0.500,11.000,1.000,0,5.000,0
"05/12/08","00:11:27",15348.000,"cc",28284.215,6,0.100,13159.000,0.200,2040.000,0.300,136.000,0.500,13.000,1.000,0,5.000,0
"05/12/08","00:11:33",12867.000,"cc",28309.443,6,0.100,10938.000,0.200,1800.000,0.300,117.000,0.500,12.000,1.000,0,5.000,0
"05/12/08","00:11:39",14845.000,"cc",28303.219,6,0.100,12621.000,0.200,2086.000,0.300,134.000,0.500,4.000,1.000,0,5.000,0
"05/12/08","00:11:45",12312.000,"cc",28320.621,6,0.100,10432.000,0.200,1752.000,0.300,120.000,0.500,8.000,1.000,0,5.000,0
"05/12/08","00:11:51",16426.000,"cc",28326.414,6,0.100,14064.000,0.200,2216.000,0.300,130.000,0.500,16.000,1.000,0,5.000,0
"05/12/08","00:11:57",21290.000,"cc",28315.936,6,0.100,18153.000,0.200,2962.000,0.300,166.000,0.500,9.000,1.000,0,5.000,0
"05/12/08","00:12:03",12810.000,"cc",28380.065,6,0.100,10854.000,0.200,1835.000,0.300,118.000,0.500,3.000,1.000,0,5.000,0
"05/12/08","00:12:09",11873.000,"cc",28271.266,6,0.100,10024.000,0.200,1721.000,0.300,120.000,0.500,8.000,1.000,0,5.000,0
"05/12/08","00:12:15",11695.000,"cc",28300.445,6,0.100,9991.000,0.200,1591.000,0.300,104.000,0.500,8.000,1.000,1.000,5.000,0
"05/12/08","00:12:21",10857.000,"cc",28293.182,6,0.100,9208.000,0.200,1534.000,0.300,104.000,0.500,11.000,1.000,0,5.000,0
"05/12/08","00:12:27",12382.000,"cc",28324.654,6,0.100,10557.000,0.200,1707.000,0.300,110.000,0.500,8.000,1.000,0,5.000,0
"05/12/08","00:12:33",12332.000,"cc",28373.229,6,0.100,10520.000,0.200,1711.000,0.300,94.000,0.500,7.000,1.000,0,5.000,0
"05/12/08","00:12:39",12109.000,"cc",28307.650,6,0.100,10318.000,0.200,1664.000,0.300,125.000,0.500,2.000,1.000,0,5.000,0
"05/12/08","00:12:45",11635.000,"cc",28291.445,6,0.100,9897.000,0.200,1621.000,0.300,110.000,0.500,6.000,1.000,1.000,5.000,0
"05/12/08","00:12:51",10225.000,"cc",28313.301,6,0.100,8751.000,0.200,1382.000,0.300,86.000,0.500,5.000,1.000,1.000,5.000,0
"05/12/08","00:12:57",9803.000,"cc",28338.563,6,0.100,8355.000,0.200,1348.000,0.300,90.000,0.500,10.000,1.000,0,5.000,0
"05/12/08","00:13:03",12352.000,"cc",28356.551,6,0.100,10528.000,0.200,1703.000,0.300,110.000,0.500,10.000,1.000,1.000,5.000,0
"05/12/08","00:13:09",17592.000,"cc",28310.504,6,0.100,15051.000,0.200,2406.000,0.300,125.000,0.500,10.000,1.000,0,5.000,0
"05/12/08","00:13:15",18841.000,"cc",28277.158,6,0.100,16132.000,0.200,2550.000,0.300,144.000,0.500,13.000,1.000,2.000,5.000,0
"05/12/08","00:13:21",16031.000,"cc",28295.668,6,0.100,13696.000,0.200,2165.000,0.300,160.000,0.500,9.000,1.000,1.000,5.000,0
"05/12/08","00:13:27",10734.000,"cc",28254.184,6,0.100,9162.000,0.200,1480.000,0.300,81.000,0.500,10.000,1.000,1.000,5.000,0
"05/12/08","00:13:33",14833.000,"cc",28373.494,6,0.100,12678.000,0.200,2007.000,0.300,125.000,0.500,22.000,1.000,1.000,5.000,0
"05/12/08","00:13:39",11933.000,"cc",28356.244,6,0.100,10147.000,0.200,1663.000,0.300,113.000,0.500,10.000,1.000,0,5.000,0
"05/12/08","00:13:45",19767.000,"cc",28310.127,6,0.100,16818.000,0.200,2775.000,0.300,152.000,0.500,21.000,1.000,1.000,5.000,0
"05/12/08","00:13:51",13086.000,"cc",28281.221,6,0.100,11159.000,0.200,1804.000,0.300,107.000,0.500,16.000,1.000,0,5.000,0
"05/12/08","00:13:57",16022.000,"cc",28332.856,6,0.100,13683.000,0.200,2190.000,0.300,136.000,0.500,12.000,1.000,1.000,5.000,0
"05/12/08","00:14:03",13081.000,"cc",28298.758,6,0.100,11224.000,0.200,1737.000,0.300,115.000,0.500,5.000,1.000,0,5.000,0
"05/12/08","00:14:09",18342.000,"cc",28323.043,6,0.100,15692.000,0.200,2489.000,0.300,145.000,0.500,13.000,1.000,3.000,5.000,0
"05/12/08","00:14:15",13703.000,"cc",28324.871,6,0.100,11779.000,0.200,1815.000,0.300,103.000,0.500,6.000,1.000,0,5.000,0
"05/12/08","00:14:21",9852.000,"cc",28349.596,6,0.100,8318.000,0.200,1427.000,0.300,94.000,0.500,13.000,1.000,0,5.000,0
"05/12/08","00:14:27",12543.000,"cc",28264.619,6,0.100,10662.000,0.200,1761.000,0.300,113.000,0.500,7.000,1.000,0,5.000,0
"05/12/08","00:14:33",22583.000,"cc",28273.623,6,0.100,19436.000,0.200,2974.000,0.300,166.000,0.500,7.000,1.000,0,5.000,0
"05/12/08","00:14:39",24712.000,"cc",28314.330,6,0.100,21264.000,0.200,3253.000,0.300,183.000,0.500,12.000,1.000,0,5.000,0
"05/12/08","00:14:45",30841.000,"cc",28282.572,6,0.100,26634.000,0.200,3985.000,0.300,203.000,0.500,18.000,1.000,1.000,5.000,0
"05/12/08","00:14:51",25331.000,"cc",28323.008,6,0.100,21792.000,0.200,3343.000,0.300,181.000,0.500,15.000,1.000,0,5.000,0
"05/12/08","00:14:57",19643.000,"cc",28390.650,6,0.100,16853.000,0.200,2663.000,0.300,115.000,0.500,11.000,1.000,1.000,5.000,0
"05/12/08","00:15:03",18574.000,"cc",28347.604,6,0.100,15968.000,0.200,2489.000,0.300,107.000,0.500,10.000,1.000,0,5.000,0
"05/12/08","00:15:09",14674.000,"cc",28345.887,6,0.100,12661.000,0.200,1896.000,0.300,103.000,0.500,13.000,1.000,1.000,5.000,0
"05/12/08","00:15:15",13248.000,"cc",28289.275,6,0.100,11326.000,0.200,1796.000,0.300,113.000,0.500,11.000,1.000,2.000,5.000,0
"05/12/08","00:15:21",17218.000,"cc",28250.270,6,0.100,14699.000,0.200,2362.000,0.300,135.000,0.500,22.000,1.000,0,5.000,0
"05/12/08","00:15:27",18668.000,"cc",28324.154,6,0.100,16017.000,0.200,2488.000,0.300,153.000,0.500,9.000,1.000,1.000,5.000,0
"05/12/08","00:15:33",29636.000,"cc",28259.658,6,0.100,25595.000,0.200,3833.000,0.300,195.000,0.500,12.000,1.000,1.000,5.000,0
"05/12/08","00:15:39",25648.000,"cc",28338.668,6,0.100,22069.000,0.200,3365.000,0.300,204.000,0.500,9.000,1.000,1.000,5.000,0
"05/12/08","00:15:45",30989.000,"cc",28377.719,6,0.100,26719.000,0.200,4024.000,0.300,229.000,0.500,16.000,1.000,1.000,5.000,0
"05/12/08","00:15:51",18935.000,"cc",28297.539,6,0.100,16229.000,0.200,2513.000,0.300,181.000,0.500,11.000,1.000,1.000,5.000,0
"05/12/08","00:15:57",12458.000,"cc",28327.898,6,0.100,10663.000,0.200,1678.000,0.300,106.000,0.500,10.000,1.000,1.000,5.000,0
"05/12/08","00:16:03",8607.000,"cc",28334.996,6,0.100,7366.000,0.200,1151.000,0.300,81.000,0.500,8.000,1.000,1.000,5.000,0
"05/12/08","00:16:09",10604.000,"cc",28271.602,6,0.100,9092.000,0.200,1414.000,0.300,90.000,0.500,8.000,1.000,0,5.000,0
"05/12/08","00:16:15",16210.000,"cc",28324.287,6,0.100,13956.000,0.200,2138.000,0.300,104.000,0.500,12.000,1.000,0,5.000,0
"05/12/08","00:16:21",7993.000,"cc",28314.252,6,0.100,6840.000,0.200,1084.000,0.300,60.000,0.500,7.000,1.000,2.000,5.000,0
"05/12/08","00:16:27",10951.000,"cc",28331.738,6,0.100,9386.000,0.200,1455.000,0.300,97.000,0.500,13.000,1.000,0,5.000,0
"05/12/08","00:16:33",6874.000,"cc",28307.383,6,0.100,5844.000,0.200,954.000,0.300,64.000,0.500,12.000,1.000,0,5.000,0
"05/12/08","00:16:39",9928.000,"cc",28315.766,6,0.100,8505.000,0.200,1331.000,0.300,78.000,0.500,14.000,1.000,0,5.000,0
"05/12/08","00:16:45",13751.000,"cc",28329.510,6,0.100,11757.000,0.200,1895.000,0.300,88.000,0.500,11.000,1.000,0,5.000,0
"05/12/08","00:16:51",18738.000,"cc",28336.645,6,0.100,16116.000,0.200,2467.000,0.300,147.000,0.500,8.000,1.000,0,5.000,0
"05/12/08","00:16:57",12949.000,"cc",28296.920,6,0.100,11107.000,0.200,1733.000,0.300,95.000,0.500,13.000,1.000,1.000,5.000,0
"05/12/08","00:17:03",12329.000,"cc",28336.022,6,0.100,10504.000,0.200,1724.000,0.300,91.000,0.500,10.000,1.000,0,5.000,0
"05/12/08","00:17:09",15086.000,"cc",28340.252,6,0.100,12989.000,0.200,1988.000,0.300,104.000,0.500,5.000,1.000,0,5.000,0
"05/12/08","00:17:15",15994.000,"cc",28257.586,6,0.100,13743.000,0.200,2137.000,0.300,108.000,0.500,6.000,1.000,0,5.000,0
"05/12/08","00:17:21",13331.000,"cc",28298.275,6,0.100,11458.000,0.200,1765.000,0.300,89.000,0.500,19.000,1.000,0,5.000,0
"05/12/08","00:17:27",11820.000,"cc",28363.578,6,0.100,10223.000,0.200,1492.000,0.300,92.000,0.500,13.000,1.000,0,5.000,0
"05/12/08","00:17:33",18138.000,"cc",28294.791,6,0.100,15636.000,0.200,2371.000,0.300,120.000,0.500,9.000,1.000,2.000,5.000,0
"05/12/08","00:17:39",11671.000,"cc",28316.764,6,0.100,10034.000,0.200,1538.000,0.300,89.000,0.500,9.000,1.000,1.000,5.000,0
"05/12/08","00:17:45",14933.000,"cc",28279.148,6,0.100,12928.000,0.200,1905.000,0.300,95.000,0.500,5.000,1.000,0,5.000,0
"05/12/08","00:17:51",14236.000,"cc",28341.549,6,0.100,12342.000,0.200,1800.000,0.300,91.000,0.500,3.000,1.000,0,5.000,0
"05/12/08","00:17:57",21696.000,"cc",28384.789,6,0.100,18667.000,0.200,2911.000,0.300,116.000,0.500,2.000,1.000,0,5.000,0
"05/12/08","00:18:03",20721.000,"cc",28278.617,6,0.100,17868.000,0.200,2732.000,0.300,111.000,0.500,10.000,1.000,0,5.000,0
"05/12/08","00:18:09",18835.000,"cc",28318.217,6,0.100,16342.000,0.200,2379.000,0.300,107.000,0.500,7.000,1.000,0,5.000,0
"05/12/08","00:18:15",33547.000,"cc",28324.391,6,0.100,29091.000,0.200,4241.000,0.300,206.000,0.500,9.000,1.000,0,5.000,0